sat.trackr.live / text

‹ back to catalog

ONEWEB-0596

NORAD 54662 · 2022-166W

PAYLOAD ACTIVE UNKNOWN

§ Identity

Operator
Country
UK
Launch date
2022-12-08
Launch site
AFETR
Launch vehicle
Mass (kg)
RCS (m²)

Purposes: comms

External: N2YO · Heavens-Above · Gunter

§ Orbital elements

Epoch: 2026-09-19T14:58:23.002176Z

Period
108.94 min
Inclination
87.9279°
Eccentricity
0.0001990
Mean motion
13.21825458 rev/d
Perigee alt
1,176.3 km
Apogee alt
1,179.3 km
Semi-major
7,555.9 km
B*
-6.6683e-4
RAAN
225.1863°
Arg perigee
79.8575°
Mean anomaly
280.2784°
Rev number
18,401

§ Raw data

ONEWEB-05961 54662U 22166W   26262.62387734 -.00000262  00000+0 -66683-3 0  99912 54662  87.9279 225.1863 0001990  79.8575 280.2784 13.21825458184018

JSON: /api/v1/satellites/54662 · /tle

For live sub-satellite position, see the globe view (requires WebGL).

§ Visibility from observer

Set your observer location to see the next 7 days of passes ≥ 10°. The values pass through the URL so the page stays shareable.

No JS? Fill the form by hand. The geolocation button needs JavaScript.